Wolf Point, MT

10:07 AM MST on February 12, 2016 (GMT -0700)
Clayton

Weather History for KOLF - June, 2013

Change the Weather History Date:

Tuesday, June 18, 2013

  Actual Average Record
Temperature  
Mean Temperature 67 °F -  
Max Temperature 82 °F 78 °F 84 °F (1997)
Min Temperature 52 °F 50 °F 30 °F (2004)
Degree Days  
Heating Degree Days 0    
Cooling Degree Days 2    
Growing Degree Days 17 (Base 50)    
Moisture  
Dew Point 55 °F    
Average Humidity 67    
Maximum Humidity 93    
Minimum Humidity 41    
Precipitation  
Precipitation 0.00 in 0.10 in 0.31 in (2014)
Month to date precipitation 2.23 1.84  
Year to date precipitation 7.79 5.54  
Sea Level Pressure  
Sea Level Pressure 29.93 in    
Wind  
Wind Speed 6 mph (East)    
Max Wind Speed 16 mph    
Max Gust Speed 22 mph    
Visibility 10 miles    
Events      
T = Trace of Precipitation, MM = Missing Value Source: NWS Daily Summary

Daily Weather History Graph

Daily Weather History Graph

Search for Another Location

Airport or City:

Trip Planner

Search our weather history database for the weather conditions in past years. The results will help you decide how hot, cold, wet, or windy it might be!

Date:

Astronomy

Jun. 18, 2013 Rise Set
Actual Time 5:01 AM MDT 9:05 PM MDT
Civil Twilight 4:20 AM MDT 9:46 PM MDT
Nautical Twilight 3:22 AM MDT 10:44 PM MDT
Astronomical Twilight 1:41 AM MDT 12:26 AM MDT
Moon 3:35 PM MDT (6/18) 1:32 AM MDT (6/18)
Length of Visible Light 17h 26m
Length of Day
16h 03m
Waxing Gibbous, 71% of the Moon is Illuminated
Jun 18
Waxing Gibbous
Jun 23
Full
Jun 29
Last Quarter
Jul 8
New
Jul 15
First Quarter

Hourly Weather History & Observations

Time (MDT) Temp. Heat Index Dew Point Humidity Pressure Visibility Wind Dir Wind Speed Gust Speed Precip Events Conditions
12:53 AM 55.9 °F - 52.0 °F 87% 30.06 in 10.0 mi Calm Calm - N/A   Clear
1:53 AM 53.1 °F - 51.1 °F 93% 30.06 in 10.0 mi North 3.5 mph - N/A   Clear
2:53 AM 53.1 °F - 50.0 °F 89% 30.05 in 10.0 mi NE 5.8 mph - N/A   Clear
3:53 AM 53.1 °F - 50.0 °F 89% 30.05 in 10.0 mi Calm Calm - N/A   Clear
4:53 AM 53.1 °F - 50.0 °F 89% 30.05 in 10.0 mi ENE 5.8 mph - N/A   Clear
5:53 AM 52.0 °F - 48.9 °F 89% 30.05 in 10.0 mi East 5.8 mph - N/A   Clear
6:53 AM 55.9 °F - 52.0 °F 87% 30.02 in 10.0 mi ENE 9.2 mph - N/A   Clear
7:53 AM 60.1 °F - 54.0 °F 80% 30.01 in 10.0 mi East 6.9 mph - N/A   Clear
8:53 AM 66.9 °F - 57.0 °F 70% 30.01 in 10.0 mi ENE 4.6 mph - N/A   Clear
9:53 AM 69.1 °F - 54.0 °F 58% 29.98 in 10.0 mi ESE 8.1 mph - N/A   Clear
10:53 AM 73.9 °F - 55.9 °F 53% 29.96 in 10.0 mi ESE 10.4 mph 18.4 mph N/A   Clear
11:53 AM 75.9 °F - 57.0 °F 52% 29.94 in 10.0 mi East 11.5 mph - N/A   Clear
12:53 PM 78.1 °F - 57.0 °F 48% 29.92 in 10.0 mi ESE 11.5 mph - N/A   Clear
1:53 PM 79.0 °F - 57.0 °F 47% 29.90 in 10.0 mi ESE 10.4 mph 20.7 mph N/A   Clear
2:53 PM 81.0 °F 80.8 °F 55.9 °F 42% 29.88 in 10.0 mi ESE 9.2 mph 17.3 mph N/A   Clear
3:53 PM 82.0 °F 81.6 °F 55.9 °F 41% 29.86 in 10.0 mi ESE 13.8 mph 19.6 mph N/A   Clear
4:53 PM 82.0 °F 81.7 °F 57.0 °F 42% 29.85 in 10.0 mi East 16.1 mph 21.9 mph N/A   Clear
5:53 PM 81.0 °F 81.1 °F 57.9 °F 45% 29.83 in 10.0 mi East 15.0 mph - N/A   Clear
6:53 PM 79.0 °F - 57.0 °F 47% 29.82 in 10.0 mi East 13.8 mph - N/A   Clear
7:53 PM 77.0 °F - 57.9 °F 52% 29.81 in 10.0 mi East 10.4 mph - N/A   Clear
8:53 PM 69.1 °F - 60.1 °F 73% 29.81 in 10.0 mi ENE 6.9 mph - N/A   Clear
9:53 PM 68.0 °F - 60.1 °F 76% 29.80 in 10.0 mi East 9.2 mph - N/A   Clear
10:53 PM 66.0 °F - 59.0 °F 78% 29.79 in 10.0 mi NE 8.1 mph - N/A   Clear
11:53 PM 66.0 °F - 57.9 °F 75% 29.78 in 10.0 mi ENE 9.2 mph - N/A   Clear